Flag for Canada Weather past 2 weeks in Resolute Bay, Nunavut Territory, Canada

Now
-2 °F

Sunny.


Feels Like: -28 °F
Forecast: N/A
Wind: 26 mph from Northeast

Location: Resolute


UV Index: N/A

Visibility: 10 mi


Pressure: 30.00 "Hg

Humidity: 59%

Dew point: -13 °F

Location of Resolute BayLocation

Historic Weather in Resolute Bay

°F

Resolute Bay temperature yesterday

Maximum temperature yesterday: 3 °F (at 2:00 PM)
Minimum temperature yesterday: -15 °F (at 11:00 PM)
Average temperature yesterday: -4 °F

Past Weeks' High & Low Weather Summary

 TemperatureHumidityPressure
High3 °F (Apr 15, 2:00 PM)78% (Apr 15, 10:00 AM)30.20 "Hg (Apr 15, 10:00 AM)
Low-22 °F (Apr 12, 4:00 AM)48% (Apr 11, 8:00 AM)29.71 "Hg (Apr 11, 2:00 PM)
Average-11 °F66%29.96 "Hg
* Reported Apr 1 3:00 PM — Apr 16 3:00 PM, Resolute Bay, Weather by CustomWeather, © 2014

Note: Actual official high and low records may vary slightly from our data, if they occured in-between our weather recording intervals... More about our weather records

Advertising

Historic Weather Conditions — Data for Previous 24 hours

 ConditionsComfort  
Time TempWeatherWind HumidityBarometerVisibility
3:00 PM
Apr 16
-2 °FSunny.26 mph59%30.00 "Hg10 mi
2:00 PM-4 °FSunny.29 mph59%30.00 "Hg15 mi
1:00 PM-4 °FSunny.26 mph59%30.00 "Hg12 mi
12:00 PM-6 °FSunny.25 mph59%29.99 "Hg12 mi
11:00 AM-8 °FSunny.26 mph64%30.00 "Hg5 mi
10:00 AM-9 °FSunny.25 mph58%30.00 "Hg15 mi
9:00 AM-8 °FSunny.25 mph58%29.99 "Hg15 mi
8:00 AM-9 °FSunny.20 mph58%30.00 "Hg15 mi
7:00 AM-13 °FSunny.16 mph57%30.01 "Hg15 mi
6:00 AM-13 °FPassing clouds.6 mph63%30.02 "Hg15 mi
5:00 AM-9 °FPassing clouds.9 mph64%30.02 "Hg15 mi
4:00 AM-17 °FPassing clouds.No wind63%30.03 "Hg15 mi
3:00 AM-17 °FPassing clouds.8 mph63%30.01 "Hg15 mi
2:00 AM-15 °FPassing clouds.2 mph57%30.03 "Hg15 mi
1:00 AM-15 °FPassing clouds.5 mph57%30.04 "Hg15 mi
12:00 AM-15 °FPassing clouds.3 mph63%30.05 "Hg15 mi
11:00 PM
Apr 15
-15 °FPassing clouds.9 mph57%30.05 "Hg15 mi
10:00 PM-13 °FScattered clouds.5 mph63%30.07 "Hg15 mi
9:00 PM-11 °FScattered clouds.13 mph63%30.06 "Hg15 mi
8:00 PM-9 °FPassing clouds.12 mph64%30.07 "Hg12 mi
7:00 PM-8 °FPassing clouds.12 mph64%30.09 "Hg12 mi
6:00 PM-6 °FPassing clouds.14 mph59%30.09 "Hg15 mi
5:00 PM-4 °FPassing clouds.20 mph65%30.06 "Hg15 mi
4:00 PM-4 °FPassing clouds.14 mph65%30.08 "Hg15 mi
Weather by CustomWeather, © 2014

See weather overview